Regional Weather Roundup
Issued by NWS

Home | Current Version | Previous Version | Graphics & Text | Print | Product List | Glossary On
Versions: 1 2 3 4 5 6 7 8 9 10 11 12 13 14 15 16 17 18 19 20 21 22 23 24 25 26 27 28 29 30 31 32 33 34 35 36 37 38 39 40 41 42 43 44 45 46 47 48 49 50
000
ASUS43 KLMK 282002
RWRKY
KENTUCKY REGIONAL WEATHER ROUNDUP
NATIONAL WEATHER SERVICE LOUISVILLE KY
400 PM EDT FRI AUG 28 2015

NOTE "FAIR" INDICATES FEW OR NO CLOUDS BELOW 12,000 FEET
WITH NO SIGNIFICANT WEATHER AND/OR OBSTRUCTIONS TO VISIBILITY.

KYZ001>023-026-027-061>063-070>075-282100-
WESTERN AND SOUTH CENTRAL KENTUCKY

CITY           SKY/WX    TMP DP  RH WIND       PRES   REMARKS
PADUCAH        MOSUNNY   83  61  47 CALM      30.06F
HENDERSON      SUNNY     81  61  50 S5        30.07F
OWENSBORO      MOSUNNY   83  63  50 SE5       30.09F
HOPKINSVILLE   MOSUNNY   85  63  46 VRB5      30.06F
BOWLING GREEN  MOSUNNY   86  62  44 SW5       30.09F
GLASGOW        MOSUNNY   85  61  44 CALM      30.10F
$$

KYZ024-025-028>034-038-045-046-053-282100-
NORTH CENTRAL KENTUCKY

CITY           SKY/WX    TMP DP  RH WIND       PRES   REMARKS
LOUISVILLE/SDF PTSUNNY   83  58  42 VRB7      30.10F
LOUISVILLE/LOU MOSUNNY   82  57  42 SW7       30.11F
FORT KNOX      PTSUNNY   81  61  50 S3        30.09F
$$

KYZ035>037-039>044-047>052-055>060-089>105-282100-
NORTHEAST KENTUCKY

CITY           SKY/WX    TMP DP  RH WIND       PRES   REMARKS
LEXINGTON      PTSUNNY   83  57  41 S8        30.13F
COVINGTON      PTSUNNY   80  56  43 SE10      30.14F
FRANKFORT      MOSUNNY   82  59  45 S7        30.12F
$$

KYZ054-064>069-076>088-106>120-282100-
SOUTHEAST KENTUCKY

CITY           SKY/WX    TMP DP  RH WIND       PRES   REMARKS
JACKSON        MOSUNNY   82  62  50 VRB5      30.16F
LONDON         PTSUNNY   83  58  42 VRB3      30.14F
SOMERSET       NOT AVBL
MIDDLESBORO    SUNNY     85  60  43 S6        30.14F
MONTICELLO     CLEAR     85  68  56 NE7       30.14F
$$




USA.gov is the U.S. government's official web portal to all federal, state and local government web resources and services.